Starlink 35786

operational
NORAD ID: 67040 Int'l Des: 2025-294 Owner: SPXS Country: US Constellation: starlink
LEOCIRCULAR

About Starlink 35786

Description loading...

Live Position

Loading 3D Globe...

Upcoming Passes

Altitude History

Altitude vs Time

uPlot chart will show altitude changes over time

Two-Line Element Set

1 67040C 25294L 25346.87548611 .01010900 00000+0 14643-2 0 3465
2 67040 43.0027 182.5102 0009191 283.3425 326.6309 16.03201480 16
Epoch: Dec 12, 2025 • Age: 50 hours

Current Status

Altitude 258.8 km
Velocity 7.75 km/s
Sub-Earth Point -18.51°S, 44.92°E
Launch Date Dec 11, 2025
Age 2 days
Type internet

Technical Details

Classification Payload
Mass 575.00 kg
Dry Mass 530.00 kg
Total Mass 575.00 kg
Length 0.30 m
Diameter 4.10 m
Span 29.00 m
Shape Box + pan
Manufacturer SPXS
Bus Type Starlink V2MO
Phase Status In Orbit
Owner/State SPXS/US

Large Constellations

Loading constellations...